[[{"header":{"parameterUnit":"m.s-1","parameterCategory":1,"la1":30.2992,"la2":30.254,"lo1":-89.0895,"lo2":-89.0443,"dy":0.0025,"dx":0.0025,"nx":19,"ny":19,"refTime":"2026-04-20T09:00:00:Z","depth":0,"parameterNumber":2,"parameterNumberName":"U-component_of_WINDS"},"data":[0,0,0,-4.0889,-4.0891,-4.0984,-4.0985,-4.1115,-4.1116,0,0,0,0,0,0,0,0,0,0,0,-4.0868,-4.0869,-4.0888,-4.0891,-4.0984,-4.0985,-4.1115,-4.1116,0,0,0,0,0,0,0,0,0,0,0,-4.0868,-4.0869,-4.0871,-4.0891,-4.0984,-4.0985,-4.1114,-4.104,0,0,0,0,0,0,0,0,0,0,-4.0947,-4.0936,-4.0869,-4.0871,-4.0892,-4.0984,-4.0985,-4.1036,-4.1045,-4.1077,0,-4.111,0,-4.1115,-4.1126,-4.1126,0,0,0,-4.0885,-4.0929,-4.0947,-4.0871,-4.0893,-4.0984,-4.0941,-4.1041,-4.105,-4.1089,-4.1111,-4.1116,-4.1117,-4.1127,-4.1127,-4.1339,-4.134,0,0,-4.088,-4.0889,-4.0941,-4.0954,-4.0941,-4.0938,-4.0944,-4.1046,-4.1071,-4.1112,-4.1119,-4.112,-4.1128,-4.1129,-4.1338,-4.1339,0,0,0,-4.0869,-4.0885,-4.0901,-4.0949,-4.0965,-4.0941,-4.0947,-4.1066,-4.1071,-4.112,-4.1121,-4.1128,-4.113,-4.1337,-4.1339,-4.1409,0,0,0,-4.0866,-4.0879,-4.0899,-4.0906,-4.0964,-4.1017,-4.0966,-4.1064,-4.1075,-4.112,-4.1129,-4.1132,-4.1335,-4.1338,-4.1404,-4.144,0,0,0,-4.086,-4.0878,-4.0894,-4.0906,-4.0947,-4.1015,-4.1026,-4.1066,-4.1076,-4.1126,-4.1132,-4.1334,-4.1337,-4.14,-4.1433,-4.1498,0,0,0,-4.0855,-4.0956,-4.0896,-4.1008,-4.0946,-4.1059,-4.1025,-4.1108,-4.116,-4.1129,-4.1335,-4.1338,-4.1398,-4.1428,-4.1493,-4.1553,-4.1579,0,0,-4.0987,-4.0972,-4.1037,-4.0986,-4.1112,-4.1044,-4.118,-4.1218,-4.1215,-4.1298,-4.1303,-4.1406,-4.1432,-4.1497,-4.1725,-4.1746,0,0,0,-4.1082,-4.1129,-4.116,-4.121,-4.1243,-4.1273,-4.129,-4.1305,-4.1375,-4.126,-4.1447,-4.1463,-4.15,-4.1528,-4.1546,-4.1577,-4.1352,-4.1352,-4.1352,-4.1279,-4.127,-4.1377,-4.138,-4.1429,-4.1446,-4.1484,-4.1506,-4.1482,-4.1527,-4.155,-4.169,-4.1723,-4.1737,-4.1769,-4.1582,-4.1583,-4.1583,-4.1583,-4.1469,-4.1534,-4.1501,-4.1593,-4.1582,-4.1659,-4.168,-4.166,-4.173,-4.1671,-4.1704,-4.1639,-4.176,-4.1788,-4.1588,-4.1588,-4.1587,-4.1586,-4.1586,-4.1596,-4.1625,-4.1642,-4.1713,-4.1769,-4.1768,-4.1837,-4.1825,-4.1814,-4.1846,-4.187,-4.1868,-4.1864,-4.1859,-4.1859,-4.186,-4.186,-4.1861,-4.1861,-4.172,-4.1737,-4.1796,-4.184,-4.187,-4.1909,-4.1928,-4.1957,-4.1987,-4.1972,-4.1973,-4.1944,-4.1774,-4.1731,-4.1868,-4.1867,-4.1866,-4.1865,-4.1865,-4.1914,-4.1868,-4.196,-4.1991,-4.2041,-4.2097,-4.2082,-4.2143,-4.2166,-4.22,-4.2165,-4.2042,-4.2025,-4.2011,-4.1975,-4.2167,-4.2167,-4.2167,-4.2167,-4.202,-4.2011,-4.2102,-4.2152,-4.2199,-4.2195,-4.2298,-4.2314,-4.2323,-4.2336,-4.2307,-4.2259,-4.2245,-4.2236,-4.2217,-4.2183,-4.2424,-4.2425,-4.2425,-4.2138,-4.2133,-4.2223,-4.2232,-4.227,-4.2303,-4.24,-4.2458,-4.2458,-4.2435,-4.2346,-4.2335,-4.2257,-4.2233,-4.2205,-4.2176,-4.2113,0,0]},{"header":{"parameterUnit":"m.s-1","parameterCategory":1,"la1":30.2992,"la2":30.254,"lo1":-89.0895,"lo2":-89.0443,"dy":0.0025,"dx":0.0025,"nx":19,"ny":19,"refTime":"2026-04-20T09:00:00:Z","depth":0,"parameterNumber":3,"parameterNumberName":"V-component_of_WINDS"},"data":[0,0,0,3.5183,3.5184,3.5218,3.5218,3.5269,3.5269,0,0,0,0,0,0,0,0,0,0,0,3.5177,3.5178,3.5183,3.5184,3.5218,3.5218,3.5269,3.5269,0,0,0,0,0,0,0,0,0,0,0,3.5177,3.5178,3.5178,3.5184,3.5218,3.5218,3.5269,3.524,0,0,0,0,0,0,0,0,0,0,3.5205,3.5205,3.5177,3.5178,3.5184,3.5218,3.5218,3.5238,3.5242,3.5256,0,3.5271,0,3.5271,3.5273,3.5273,0,0,0,3.518,3.5202,3.5208,3.5178,3.5184,3.5218,3.5201,3.524,3.5244,3.5261,3.5272,3.5273,3.5272,3.5274,3.5274,3.5373,3.5373,0,0,3.5178,3.5186,3.5205,3.521,3.5206,3.52,3.5203,3.5242,3.5255,3.5272,3.5274,3.5273,3.5274,3.5274,3.5372,3.5373,0,0,0,3.5175,3.5184,3.5188,3.5208,3.5214,3.5201,3.5204,3.5253,3.5254,3.5275,3.5274,3.5274,3.5275,3.5371,3.5372,3.5412,0,0,0,3.5174,3.5183,3.5188,3.5193,3.5214,3.5234,3.5214,3.5251,3.5255,3.5273,3.5274,3.5276,3.5371,3.5372,3.5409,3.5429,0,0,0,3.5173,3.5183,3.5189,3.5193,3.5209,3.5233,3.5236,3.5252,3.5254,3.5273,3.5276,3.537,3.5372,3.5407,3.5425,3.5457,0,0,0,3.5175,3.5223,3.519,3.5244,3.5209,3.5258,3.5236,3.5272,3.5293,3.5275,3.5371,3.5372,3.5406,3.5422,3.5454,3.5485,3.5498,0,0,3.524,3.5232,3.5263,3.5234,3.5292,3.5252,3.5315,3.5327,3.5321,3.5355,3.5358,3.541,3.5425,3.5456,3.5573,3.5584,0,0,0,3.5286,3.5309,3.5322,3.5343,3.5354,3.5365,3.5366,3.537,3.54,3.5341,3.543,3.5439,3.5457,3.5471,3.548,3.5495,3.5379,3.5379,3.5379,3.5389,3.538,3.5431,3.5427,3.5448,3.5449,3.5465,3.5471,3.5455,3.5476,3.5486,3.5558,3.5575,3.5582,3.5598,3.5502,3.5502,3.5502,3.5502,3.5484,3.5514,3.5493,3.5535,3.5525,3.556,3.5563,3.5551,3.5581,3.555,3.5565,3.5531,3.5594,3.5607,3.5505,3.5505,3.5504,3.5504,3.5504,3.555,3.5562,3.5568,3.5599,3.5623,3.5616,3.5647,3.5637,3.5627,3.5643,3.5652,3.5651,3.5648,3.5648,3.5648,3.5649,3.5649,3.5649,3.5649,3.5615,3.562,3.5648,3.5665,3.5677,3.5693,3.5695,3.5707,3.5717,3.5707,3.5707,3.5689,3.5603,3.5581,3.5653,3.5652,3.5652,3.5651,3.5651,3.5713,3.569,3.5732,3.5745,3.5764,3.5789,3.5776,3.5801,3.5809,3.5825,3.5804,3.5742,3.5731,3.5724,3.5705,3.5806,3.5806,3.5806,3.5806,3.5768,3.5762,3.5804,3.5825,3.5845,3.5838,3.5886,3.5889,3.5887,3.5892,3.5876,3.5851,3.5844,3.5838,3.5828,3.5811,3.5936,3.5936,3.5936,3.5827,3.5823,3.5866,3.5866,3.5881,3.5893,3.5937,3.5962,3.5956,3.5941,3.5895,3.589,3.5849,3.5837,3.582,3.5805,3.5773,0,0]}]]